Hourly Weather Roundup
Issued by NWS Central Illinois

Home | Current Version | Previous Version | Text Only | Print | Product List | Glossary On
Versions: 1 2 3 4 5 6 7 8 9 10 11 12 13 14 15 16 17 18 19 20 21 22 23 24 25 26 27 28 29 30 31 32 33 34 35 36 37 38 39 40 41 42 43 44 45 46 47 48 49 50
000
NZUS43 KILX 220610
HWRILX

AREA WEATHER ROUNDUP
NATIONAL WEATHER SERVICE, LINCOLN IL
100 AM CDT FRI MAY 22 2015


CITY           SKY/WX    TMP DP  RH WIND       PRES   REMARKS
BLOOMINGTON    CLEAR     55  45  69 SW13      30.11S
6HR MIN TEMP:  55; 6HR MAX TEMP:  66;

CHAMPAIGN      PTCLDY    52  44  74 SW14      30.12S
6HR MIN TEMP:  52; 6HR MAX TEMP:  65;

DANVILLE       CLEAR     51  42  70 SW8       30.09S
6HR MIN TEMP:  51; 6HR MAX TEMP:  63;

DECATUR        CLEAR     55  44  66 SW10      30.13S
6HR MIN TEMP:  53; 6HR MAX TEMP:  64;

EFFINGHAM      CLEAR     47  41  80 S5        30.18S
FLORA          CLEAR     47  43  85 SW6       30.18S
6HR MIN TEMP:  47; 6HR MAX TEMP:  60;

GALESBURG      CLEAR     56  47  73 SW10      30.08S
JACKSONVILLE   CLEAR     57  47  69 SW9       30.13F
6HR MIN TEMP:  56; 6HR MAX TEMP:  68;

LACON          CLEAR     58  45  62 SW8       30.06S
6HR MIN TEMP:  56; 6HR MAX TEMP:  68;

LAWRENCEVILLE  CLEAR     50  43  77 W6        30.17S
6HR MIN TEMP:  49; 6HR MAX TEMP:  60;

LITCHFIELD     CLEAR     51  44  74 SW7       30.16S
$$


CITY           SKY/WX    TMP DP  RH WIND       PRES   REMARKS
LINCOLN        CLEAR     56  45  65 CALM      30.10F
6HR MIN TEMP:  56; 6HR MAX TEMP:  68;

MACOMB         CLEAR     57  47  71 SW10      30.12S
MATTOON        CLEAR     52  42  69 SW9       30.13F
6HR MIN TEMP:  52; 6HR MAX TEMP:  61;

MT CARMEL AP   CLEAR     52  43  71 W7        30.17S
OLNEY-NOBLE AP CLEAR     50  43  76 CALM      30.18S
PARIS          CLEAR     51  43  73 SW10      30.14S
6HR MIN TEMP:  51; 6HR MAX TEMP:  64;

PEORIA         CLEAR     57  46  66 SW9       30.08F
6HR MIN TEMP:  57; 6HR MAX TEMP:  69;

PONTIAC        MOCLDY    59  46  61 SW12      30.08F
RANTOUL        MOCLDY    55  42  62 SW9       30.11S
6HR MIN TEMP:  54; 6HR MAX TEMP:  67;

ROBINSON       CLEAR     50  44  80 SW6       30.17S
6HR MIN TEMP:  49; 6HR MAX TEMP:  61;

SPRINGFIELD    CLEAR     56  45  66 SW6       30.13F
6HR MIN TEMP:  56; 6HR MAX TEMP:  68;

TAYLORVILLE    CLEAR     52  45  76 SW8       30.14F
$$

...REGIONAL REPORTS...


CITY           SKY/WX    TMP DP  RH WIND       PRES   REMARKS
CHICAGO O`HARE PTCLDY    59  40  49 SW12      30.01F
KANKAKEE       CLEAR     52  43  70 SW8       30.07S
MOLINE         CLEAR     54  44  69 W3        30.06R
MOUNT VERNON   CLEAR     43  37  81 CALM      30.20S
PITTSFIELD     CLEAR     58  46  64 SW10      30.16S
QUINCY         CLEAR     55  46  71 SW10      30.14R
ROCKFORD       CLEAR     56  41  57 SW5       30.04S
$$


CITY           SKY/WX    TMP DP  RH WIND       PRES   REMARKS
BURLINGTON     CLEAR     57  47  69 W8        30.09S
CEDAR RAPIDS   CLEAR     51  35  54 W8        30.08R
DES MOINES     CLEAR     56  42  59 W5        30.14R
KIRKSVILLE     CLEAR     55  46  71 W6        30.17R
OTTUMWA        CLEAR     54  45  71 W9        30.11S
ST LOUIS       CLEAR     54  43  66 SW5       30.18S
$$


CITY           SKY/WX    TMP DP  RH WIND       PRES   REMARKS
TERRE HAUTE    CLEAR     50  43  77 W8        30.14F
EVANSVILLE     CLEAR     46  43  89 W5        30.19S
INDIANAPOLIS   CLEAR     47  41  80 SW8       30.11S
LAFAYETTE      CLEAR     47  40  76 W5        30.10S
MADISON        CLEAR     52  41  66 NE9       30.06R
MILWAUKEE      CLEAR     47  34  60 N9        30.06R
$$





USA.gov is the U.S. government's official web portal to all federal, state and local government web resources and services.